User: anonymous   Login
Location: Unspecified
(0.0000°N, 0.0000°E)
Time: 00:02:01
(UTC+01:00)
Language:

Cosmos 1703 - Orbit

View from above orbital plane
View from above orbital plane
View from above satellite
View from above satellite

Ground track
Ground track

The orbit data is extracted from the following two-line orbital elements,

1 16262U 85108A   15059.23341734  .00004354  00000-0  28335-3 0  9996
2 16262 082.4966 353.2412 0012030 313.2774 046.7450 15.07679028592194
Epoch (UTC): 28 February 2015 05:36:07
Eccentricity: 0.0012030
inclination: 82.4966°
perigee height: 535 km
apogee height: 551 km
right ascension of ascending node: 353.2412°
argument of perigee: 313.2774°
revolutions per day: 15.07679028
mean anomaly at epoch: 46.7450°
orbit number at epoch: 59219

The dashed part of the orbit path shows where the satellite is in the earth's shadow,  

DLR